Location: ?
(35.4554°N, 139.3092°E)
Time: 22:26:41
(UTC+00:00)

USA 215 - Pass Details

Date: 21 April 2021
Orbit: 1101 x 1107 km, 123.0° (Epoch: 07 May)

Event Time Altitude Azimuth Distance (km) Brightness Sun altitude
Exits shadow 13:09:38 51° 317° (NW) 1,366 3.9 -37.8°
Drops below altitude 10° 13:14:17 10° 317° (NW) 2,960 6.2 -38.2°
Sets 13:16:46 0° 317° (NW) 3,920 7.0 -38.4°
